Location: Casilda
(33.0440°S, 61.1680°W)
Time: 18:40:43
(UTC-03:00)

ISS - Pass Details

Date: 01 December 2021
Orbit: 417 x 423 km, 51.6° (Epoch: 28 November)

Event Time Altitude Azimuth Distance (km) Brightness Sun altitude
Exits shadow 02:58:42 21° 173° (S) 1,031 -1.2 -27.5°
Drops below altitude 10° 03:00:13 10° 154° (SSE) 1,521 0.0 -27.4°
Sets 03:02:30 0° 143° (SE) 2,391 1.4 -27.1°
